Location: Unspecified
(0.0000°N, 0.0000°E)
Time: 21:15:23
(UTC+00:00)

Transit 4A - Pass Details

Date: 04 June 2022
Orbit: 864 x 980 km, 66.8° (Epoch: 26 June)

Event Time Altitude Azimuth Distance (km) Brightness Sun altitude
Rises 23:41:06 0° 194° (SSW) 3,579 - -67.1°
Reaches altitude 10° 23:43:37 10° 192° (SSW) 2,650 - -67.2°
Maximum altitude 23:49:46 68° 109° (ESE) 1,022 - -67.4°
Drops below altitude 10° 23:56:04 10° 27° (NNE) 2,706 - -67.5°
Sets 23:58:39 0° 25° (NNE) 3,658 - -67.5°
